Location: Eimen
(51.8766°N, 9.7806°E)
Time: 08:11:00
(UTC+00:00)

Cosmos 2221 Rocket - Pass Details

Date: 11 August 2024
Orbit: 618 x 644 km, 82.5° (Epoch: 09 September)

Event Time Altitude Azimuth Distance (km) Brightness Sun altitude
Rises 03:10:42 0° 348° (NNW) 2,970 7.4 -7.3°
Reaches altitude 10° 03:12:57 10° 347° (NNW) 2,056 6.6 -7.0°
Maximum altitude 03:17:32 79° 261° (W) 664 3.6 -6.4°
Drops below altitude 10° 03:22:03 10° 176° (S) 2,036 5.9 -5.8°
Sets 03:24:17 0° 175° (S) 2,938 6.7 -5.5°
